Location: Beaver Brook Trail
(44.0290°N, 71.8137°W)
Time: 08:44:35
(UTC+00:00)

ARIANE 6 FM1 Upper Stage - Pass Details

Date: 15 October 2024
Orbit: 558 x 596 km, 62.0° (Epoch: 11 November)

Event Time Altitude Azimuth Distance (km) Brightness Sun altitude
Rises 23:20:14 0° 328° (NNW) 2,824 6.7 -14.7°
Reaches altitude 10° 23:23:17 10° 351° (N) 1,929 5.5 -15.3°
Maximum altitude 23:25:59 16° 30° (NNE) 1,580 4.7 -15.8°
Enters shadow 23:26:44 15° 42° (NE) 1,610 4.6 -15.9°
